Miscellaneous Local Product
Issued by NWS Hastings, NE

Home | Current Version | Previous Version | Graphics & Text | Print | Product List | Glossary On
Versions: 1 2 3 4 5 6 7 8 9 10 11 12 13 14 15 16 17 18 19 20 21 22 23 24 25 26 27 28 29 30 31 32 33 34 35 36 37 38 39 40 41 42 43 44 45 46 47 48 49 50
000
AXUS43 KGID 181902
MISGRI

GID CWA HOURLY WEATHER ROUNDUP
NATIONAL WEATHER SERVICE HASTINGS NE
100 PM CST THU DEC 18 2014

NOTE: "FAIR" INDICATES FEW OR NO CLOUDS BELOW 12,000 FEET WITH NO
SIGNIFICANT WEATHER AND/OR OBSTRUCTIONS TO VISIBILITY.

...SOUTH CENTRAL NEBRASKA...

CITY           SKY/WX    TMP DP  RH WIND       PRES   REMARKS
GRAND ISLAND   CLOUDY    28  23  81 SW7       30.16F WCI  21
HASTINGS       CLOUDY    28  23  81 SW5       30.15F WCI  23
KEARNEY        CLOUDY    28  25  86 S8        30.14F WCI  20
ORD            NOT AVBL
YORK           CLOUDY    28  25  86 S5        30.18  WCI  23
AURORA         CLOUDY    28  25  88 SW5       30.17F WCI  23
LEXINGTON      CLOUDY    28  25  87 W8        30.13F WCI  20
HOLDREGE       CLOUDY    28  26  91 W5        30.13F FOG     WCI  22
HEBRON         MOSUNNY   30  25  79 CALM      30.20F HAZE

...NEBRASKA PANHANDLE...

CITY           SKY/WX    TMP DP  RH WIND       PRES   REMARKS
CHADRON        SUNNY     28  23  81 S5        30.03F WCI  23
ALLIANCE       SUNNY     27  23  85 W5        30.02F WCI  22
SCOTTSBLUFF    MOSUNNY   17  13  84 NW3       30.06F FOG
SIDNEY         SUNNY     34  24  67 NW9       30.04F WCI  27

...WESTERN AND NORTH CENTRAL NEBRASKA...

CITY           SKY/WX    TMP DP  RH WIND       PRES   REMARKS
VALENTINE      CLOUDY    27  23  85 SW8       30.06F FOG     WCI  19
AINSWORTH      CLOUDY    27  24  89 SW3       30.08F
ONEILL         CLOUDY    27  26  95 S5        30.13F FOG     WCI  22
BROKEN BOW     CLOUDY    28  26  92 SW8       30.10F WCI  20
IMPERIAL       CLOUDY    25  22  88 W5        30.08F FOG     WCI  19
NORTH PLATTE   CLOUDY    28  25  88 SW9       30.09F WCI  19
MCCOOK         CLOUDY    28  26  92 SW7       30.12F WCI  21

...EASTERN NEBRASKA...

CITY           SKY/WX    TMP DP  RH WIND       PRES   REMARKS
NORFOLK        CLOUDY    29  23  78 S8        30.17F WCI  21
SO SIOUX CITY  CLOUDY    29  22  75 SE7       30.21F WCI  22
TEKAMAH        CLOUDY    30  24  78 S7        30.21F WCI  23
COLUMBUS       CLOUDY    28  19  69 S3        30.19F
ALBION         CLOUDY    27  22  82 SW5       30.17S WCI  22
OMAHA EPPLEY   FLURRIES  30  25  81 S6        30.23F WCI  24
OFFUTT AFB     PTSUNNY   30  26  85 SE5       30.22F WCI  25
MILLARD        CLOUDY    31  25  81 CALM      30.23S
LINCOLN        CLOUDY    31  26  82 S5        30.21F WCI  26
NEBRASKA CITY  CLOUDY    29  27  91 SE3       30.22F
BEATRICE       CLOUDY    30  27  86 CALM      30.20F
FALLS CITY     CLOUDY    30  26  85 E5        30.22F WCI  25

...NORTHERN KANSAS...

CITY           SKY/WX    TMP DP  RH WIND       PRES   REMARKS
GOODLAND       SUNNY     31  29  92 SW7       30.07F WCI  24
HILL CITY      CLOUDY    31  27  85 W5        30.15F WCI  26
NORTON         CLOUDY    30  25  80 SW8       30.12F WCI  23
PHILLIPSBURG   CLOUDY    34  28  80 CALM      30.17F
SMITH CENTER   CLOUDY    27  25  93 CALM      30.18F
BELOIT         CLOUDY    30  27  86 CALM      30.18F
HAYS           CLOUDY    30  21  69 SW5       30.16F WCI  25
RUSSELL        CLOUDY    29  27  92 CALM      30.16F
CONCORDIA      CLOUDY    30  27  88 CALM      30.18F
SALINA         CLOUDY    31  26  82 NW5       30.20F HAZE    WCI  26
TOPEKA         CLOUDY    33  30  88 CALM      30.22F



USA.gov is the U.S. government's official web portal to all federal, state and local government web resources and services.